Theta_e
286 285 285 284 283 283 283 283 283 282 282 282 282 282 282 282 281 281 281 281 281 281 281 282 282 282 282 282 282 282 282 281 281 281 281 280 280 280 279 279 279 279 279 279 279 279 279 278 278 278 278 279 279 280 282 285 285 286 287 287 288 288 288 289 289 290 290 291 291 290 290 290 291 291 291 292 294 295 295 295 295 296 298 301 305
285 284 284 283 283 283 283 283 282 282 282 281 281 281 281 281 280 279 279 279 279 280 280 281 281 281 281 281 282 282 282 281 281 281 281 281 280 280 280 279 279 279 279 279 278 278 278 278 278 278 278 278 278 278 280 282 284 285 285 286 287 287 287 287 288 289 290 290 291 291 291 290 290 291 292 292 292 293 294 295 295 294 295 297 299
284 284 283 283 283 283 283 282 281 281 281 281 281 280 280 279 279 278 277 277 278 278 278 279 279 280 280 281 281 281 281 281 281 281 281 281 280 280 280 280 279 279 279 279 278 278 278 278 278 278 278 278 278 278 278 279 282 284 285 285 286 286 287 287 288 289 289 290 290 291 291 291 291 291 292 292 292 292 292 294 295 294 294 294 295
283 283 283 283 283 283 282 281 281 281 281 281 280 279 278 278 277 276 276 276 276 277 277 277 278 278 279 279 280 281 281 281 281 281 281 281 281 281 280 280 280 280 279 279 278 278 278 278 278 278 278 278 278 278 278 278 279 282 284 285 285 286 286 287 287 288 289 289 290 290 291 291 292 292 292 293 293 293 292 292 293 293 293 293 294
283 283 283 282 283 283 282 281 281 280 280 280 279 278 278 277 276 275 275 275 275 276 276 277 277 277 277 278 279 279 280 280 281 281 281 281 281 281 280 280 280 280 279 279 278 278 278 277 277 277 277 277 278 278 278 278 278 279 282 284 284 285 286 286 287 288 288 289 289 290 291 291 291 292 292 293 294 294 294 293 293 293 293 293 293
283 283 282 282 282 282 282 281 280 280 279 279 278 277 277 276 275 274 274 274 275 275 275 275 276 276 277 277 277 278 279 279 280 280 281 281 281 280 280 280 280 280 279 279 278 278 278 277 277 277 277 277 277 277 277 278 278 278 280 282 283 284 285 286 286 287 287 288 289 289 290 290 291 291 291 292 294 296 296 296 295 294 294 293 293
282 282 282 281 281 281 280 280 279 279 278 278 277 276 276 275 274 273 273 273 274 274 274 274 275 276 277 277 277 278 278 278 279 279 280 280 280 280 280 280 279 279 279 278 278 278 278 277 277 277 277 277 277 277 277 277 278 278 278 280 282 283 284 285 286 286 286 287 288 289 289 290 290 290 290 291 293 294 294 295 296 295 295 294 294
282 282 281 281 280 280 280 279 278 277 277 276 276 275 275 274 273 273 272 272 272 272 272 273 273 274 276 276 276 276 276 276 277 278 278 278 279 279 279 279 278 278 278 278 277 277 277 277 277 277 276 276 276 276 277 277 277 277 277 278 280 282 283 284 285 285 286 286 287 288 288 289 290 290 289 290 290 291 292 293 293 294 295 295 295
282 281 281 280 280 280 279 278 277 276 276 275 275 275 274 273 273 272 272 272 271 271 272 272 272 273 274 274 274 275 275 275 276 276 276 277 277 278 278 278 278 277 277 277 277 277 277 277 277 276 276 276 276 276 276 276 277 277 277 277 279 281 282 283 284 285 285 286 286 287 287 288 288 288 288 288 289 289 290 291 292 292 293 293 293
281 280 280 280 280 280 279 278 277 276 275 274 274 273 273 272 272 271 271 271 271 271 271 271 271 272 273 273 273 273 274 274 274 274 275 275 276 276 276 276 276 276 276 276 276 276 276 276 276 276 275 275 275 275 275 276 276 276 277 276 277 280 281 282 283 284 285 285 286 286 287 287 287 287 287 288 288 288 289 289 290 291 291 291 291
281 280 280 280 279 279 278 277 276 275 274 273 273 273 272 272 271 271 270 270 270 271 271 271 271 271 272 272 272 272 273 273 273 273 273 273 274 274 274 274 274 275 275 275 275 275 275 275 275 275 275 275 274 274 275 275 275 276 276 276 277 279 281 281 282 284 284 285 285 285 286 286 287 287 287 288 288 288 288 288 288 288 289 290 290
280 280 279 279 279 278 277 276 275 275 273 273 273 272 271 271 271 270 270 270 270 270 270 270 270 270 271 271 271 271 271 272 272 272 272 272 273 273 273 273 273 273 273 273 273 273 273 274 274 274 274 274 274 274 274 275 275 276 276 276 276 277 280 281 282 283 284 284 284 285 285 285 286 286 287 287 288 288 288 288 288 288 288 288 289
280 279 279 279 278 277 277 276 275 274 273 273 273 272 271 271 271 270 269 269 269 269 269 270 270 270 270 270 270 270 270 271 271 271 271 272 272 272 272 272 272 272 272 272 272 272 272 273 273 273 273 273 273 273 274 274 275 275 276 276 276 276 279 281 282 283 284 284 283 284 284 285 285 286 286 286 287 287 288 288 288 289 289 289 289
279 279 279 279 278 277 276 275 274 273 273 273 273 271 270 271 271 271 269 269 269 269 269 269 269 269 269 269 269 270 270 270 271 271 271 271 271 271 271 271 271 271 271 271 271 272 272 272 272 272 272 272 272 273 273 274 275 275 276 276 275 276 278 280 281 282 283 283 283 282 283 283 283 284 285 286 286 287 287 288 288 288 289 289 289
279 279 280 279 277 277 276 275 274 274 274 273 272 271 271 270 271 271 270 269 268 269 269 269 269 269 269 269 269 269 270 270 270 270 270 270 270 270 270 270 270 271 271 271 271 271 271 271 271 271 271 272 272 272 273 273 274 275 275 275 275 275 277 279 281 281 281 281 281 281 282 282 282 282 283 284 285 285 286 287 287 287 288 288 289
279 280 280 279 277 277 276 275 274 274 274 273 272 271 270 270 271 271 271 270 269 268 269 268 268 269 269 269 269 269 269 269 269 269 269 269 269 270 270 270 270 270 270 270 270 270 270 270 270 270 271 271 271 272 272 273 273 273 274 274 274 275 276 278 279 279 279 280 280 280 281 281 281 282 282 283 284 285 285 286 286 286 287 287 287
279 279 279 278 277 276 276 275 274 274 273 273 272 271 271 271 271 271 271 270 269 268 268 268 268 268 268 269 269 269 269 269 269 269 269 269 269 269 269 269 269 269 269 270 270 270 270 270 270 270 270 270 271 271 271 272 272 273 273 273 273 274 275 277 278 278 279 279 279 280 280 280 280 281 281 282 283 284 285 285 286 286 286 287 287
279 278 278 279 278 277 276 275 274 274 273 273 272 271 272 272 271 271 271 270 269 268 268 268 268 268 268 269 269 269 269 269 269 269 269 269 269 269 269 269 269 269 269 269 269 269 269 269 269 269 269 270 270 270 270 271 271 272 272 272 272 273 274 275 277 277 278 279 279 279 279 279 279 280 280 281 281 282 283 284 285 285 286 286 286
278 278 278 278 278 277 276 275 274 274 273 273 272 272 272 271 270 271 271 269 268 268 268 268 268 268 268 268 268 268 269 269 269 269 269 269 269 269 269 269 269 269 269 269 269 269 269 269 269 269 269 269 269 269 270 270 270 271 271 271 271 272 272 274 275 276 277 278 278 278 279 279 279 279 279 280 280 281 281 282 283 283 284 285 286
278 277 277 278 278 277 276 274 273 273 273 273 272 272 272 271 270 271 271 269 269 268 268 268 268 268 268 268 268 268 268 268 268 269 269 269 269 269 269 269 269 269 269 269 269 269 269 269 269 269 269 269 269 269 269 269 269 270 270 270 271 271 272 272 273 274 276 277 277 278 278 278 278 279 279 279 280 280 281 281 281 282 282 283 284
278 277 277 277 276 276 276 274 273 273 273 273 272 270 270 271 272 271 270 269 268 268 268 268 268 268 268 268 268 268 268 268 268 268 268 268 268 268 268 268 268 268 268 268 268 269 269 269 268 268 268 268 269 269 269 269 269 269 270 270 270 271 271 271 272 273 274 275 276 277 277 278 278 278 278 279 279 280 280 281 281 281 282 282 283
277 277 277 277 276 276 275 273 273 272 272 272 272 271 270 271 271 270 269 269 268 268 269 269 268 268 269 269 269 269 268 268 268 268 268 268 268 268 268 268 268 268 268 268 268 268 268 268 268 268 268 268 268 269 269 269 269 269 269 269 270 270 271 271 271 272 273 274 275 276 277 277 277 277 278 278 279 279 280 280 280 281 281 281 282
277 277 276 276 276 275 274 273 272 271 270 271 271 272 271 270 269 269 268 269 269 269 269 269 269 270 270 270 269 269 268 268 268 268 269 269 269 268 268 268 268 268 268 268 268 268 268 268 268 268 269 268 269 269 269 269 269 269 269 269 270 270 270 271 271 271 272 273 274 275 276 277 277 277 277 278 278 278 279 280 280 280 281 281 281
277 277 276 276 275 275 273 273 271 271 271 270 270 271 271 269 268 267 268 268 269 270 270 270 270 271 271 271 270 269 268 269 269 269 269 269 269 269 268 268 268 268 268 268 268 268 268 268 268 268 269 269 269 269 269 269 269 269 269 269 269 270 270 270 271 271 271 272 273 274 275 276 276 277 277 278 278 278 278 279 280 280 281 281 281
277 276 276 276 275 274 273 273 272 271 271 270 269 270 271 270 268 267 267 268 269 270 271 271 271 271 271 271 270 269 269 269 270 270 270 270 270 270 269 269 268 268 268 268 268 269 268 268 268 268 268 269 269 269 269 269 269 269 269 269 269 269 270 270 270 271 271 272 272 273 274 275 276 276 277 277 277 278 278 279 279 279 280 280 280
277 276 276 275 274 274 273 273 273 271 271 270 269 270 271 270 268 267 267 267 268 270 271 272 272 271 271 271 270 269 269 270 271 271 271 271 271 270 270 270 269 269 269 269 269 269 269 269 269 269 269 269 269 269 269 269 269 269 269 269 269 269 269 269 270 270 270 271 272 272 273 274 275 276 276 277 277 278 279 279 279 279 279 279 279
277 276 276 275 274 273 272 273 272 271 271 271 270 271 271 269 267 267 267 267 268 269 270 271 272 272 272 272 271 270 270 271 271 272 272 272 272 271 271 271 270 270 270 270 270 270 270 270 270 270 270 269 269 269 269 269 269 269 269 269 269 269 269 269 269 269 270 271 271 272 272 273 274 275 276 276 277 278 278 279 279 279 278 278 279
277 276 275 275 274 273 272 271 271 271 271 271 271 271 270 268 267 267 267 267 267 268 269 270 271 272 273 272 272 271 272 272 272 272 272 272 273 272 272 272 272 271 271 271 271 271 271 271 271 271 271 270 270 270 270 269 269 269 269 269 269 269 269 269 269 269 270 271 271 271 272 272 273 274 275 275 276 277 277 278 278 278 278 279 279
277 276 275 274 274 273 272 271 270 270 270 270 270 271 269 267 267 267 267 267 267 267 268 269 270 271 272 272 272 273 273 273 273 273 273 273 273 273 273 273 273 273 273 273 273 273 273 273 273 272 272 271 271 271 271 271 270 270 270 269 269 269 269 269 269 269 270 270 271 271 271 272 272 273 274 274 275 276 277 278 278 278 279 280 280
276 276 275 274 273 273 272 271 270 270 269 268 269 269 267 266 267 267 267 267 267 266 267 268 269 269 270 271 273 273 274 274 273 273 273 274 274 274 274 274 274 274 274 274 275 275 274 274 274 274 273 273 273 272 272 272 271 271 271 270 270 270 270 269 269 269 269 270 270 270 271 271 271 272 273 274 275 276 278 278 278 279 280 281 281
276 275 274 274 273 273 272 271 271 269 268 267 267 267 267 266 267 267 267 268 267 267 267 267 268 268 269 271 272 273 274 274 274 274 274 274 274 274 274 274 274 275 275 275 276 276 275 275 274 274 275 274 274 274 274 274 273 272 271 271 271 271 271 271 271 270 270 271 271 271 271 271 271 271 272 273 274 276 277 277 277 278 279 280 280
276 275 274 273 273 272 271 270 270 269 267 267 267 267 267 267 267 268 268 267 267 268 268 268 268 268 269 270 271 272 273 274 274 274 274 274 274 274 274 275 275 275 276 276 277 277 277 276 275 275 276 276 276 276 275 275 274 273 273 273 272 272 272 272 272 272 272 272 272 273 273 273 273 272 272 272 273 275 276 276 277 277 278 279 279
276 275 274 274 273 272 271 270 269 268 267 267 266 266 267 267 267 268 268 267 268 268 268 268 268 268 268 269 270 271 273 274 274 274 275 275 275 275 275 275 275 276 276 277 277 277 277 277 277 277 277 277 278 278 277 276 276 275 274 274 274 273 273 273 273 273 273 274 274 274 274 274 275 274 273 272 273 274 275 276 276 277 278 278 278
275 275 274 274 273 273 272 271 270 269 267 267 266 266 267 267 267 267 268 268 268 268 268 269 268 268 268 268 269 270 272 273 273 274 275 275 275 275 275 275 275 276 277 277 278 278 278 278 277 277 278 278 279 279 278 278 278 277 276 275 275 274 274 274 274 274 275 275 275 275 275 275 276 276 276 275 274 273 274 275 276 276 277 277 277
275 275 274 274 273 273 273 272 270 269 268 267 267 267 267 267 267 267 268 268 268 268 269 269 269 269 268 268 269 270 271 272 273 274 275 275 275 275 275 275 275 276 276 277 278 278 278 278 278 277 278 279 279 279 279 279 279 279 277 276 276 275 275 275 275 275 276 276 276 276 276 277 277 277 277 277 276 275 274 274 274 275 276 276 276
275 274 274 274 273 273 273 272 271 270 269 268 268 268 267 268 268 268 268 268 268 269 269 268 269 269 268 268 268 269 271 272 272 273 274 275 275 275 275 275 276 276 276 277 277 278 278 278 279 278 278 279 280 280 280 280 280 279 278 277 277 277 277 277 277 277 278 278 278 278 278 278 278 278 278 278 277 277 275 274 274 274 275 275 275
275 274 274 274 274 274 273 272 271 270 270 269 269 268 268 269 269 269 269 269 269 269 268 268 269 269 269 268 268 269 270 271 271 272 273 274 274 275 275 275 276 276 277 277 277 278 278 278 279 279 278 279 280 280 280 280 280 280 279 279 279 278 278 279 279 279 279 279 279 279 279 280 280 280 280 279 278 277 276 276 275 274 274 274 274
275 275 275 274 274 274 274 273 271 271 271 270 269 269 269 270 270 269 269 269 269 269 269 269 269 269 269 269 269 269 270 270 271 271 272 273 274 274 275 275 275 276 277 277 277 278 279 278 278 278 279 279 280 280 280 280 281 281 280 280 280 280 280 279 279 279 279 279 280 280 280 280 280 280 280 280 279 277 276 277 277 276 275 275 275
275 275 275 275 275 275 274 273 272 272 272 271 270 270 270 270 270 270 269 269 269 269 269 269 269 269 270 270 269 269 269 270 271 271 272 273 273 274 275 275 275 275 276 276 277 277 278 278 278 278 278 279 279 280 280 281 281 281 281 281 281 280 280 280 280 280 280 280 280 280 280 280 280 280 280 280 280 279 278 278 278 277 276 276 276
276 276 275 275 275 275 275 274 272 272 272 272 271 271 271 270 270 270 269 269 269 269 269 269 269 269 270 270 270 269 270 270 271 271 272 273 273 273 274 275 275 275 275 276 275 275 276 277 277 277 277 278 278 279 279 280 280 280 280 280 280 280 280 280 280 280 280 280 280 280 280 280 280 280 280 280 280 280 279 279 279 278 278 278 278
276 276 275 275 275 275 274 274 273 272 273 272 272 272 271 271 270 270 270 270 269 269 269 269 270 270 270 270 270 270 270 271 271 271 272 273 273 273 274 274 275 275 275 274 274 273 273 274 275 275 276 277 277 277 278 278 279 279 279 279 279 279 279 279 280 279 279 279 279 280 280 280 280 280 280 280 280 280 280 280 280 279 279 280 279
276 276 275 275 275 274 274 274 273 273 273 272 272 272 271 271 271 270 270 270 270 270 270 270 270 270 270 270 271 271 270 271 271 271 272 273 273 273 273 274 274 274 274 273 272 272 272 273 274 274 275 275 276 276 277 277 278 278 278 279 278 278 278 279 278 278 277 278 278 279 280 281 281 281 280 280 280 281 281 281 280 280 280 280 279
276 276 275 275 275 275 274 274 273 273 273 273 272 272 271 271 271 271 271 271 271 270 270 270 270 270 270 271 271 271 271 271 271 271 272 273 273 273 273 274 274 273 272 272 271 272 272 273 273 274 274 274 275 275 276 276 276 276 277 278 278 278 278 278 278 277 277 277 277 278 279 280 281 281 281 281 281 281 282 282 281 281 281 280 280
276 276 276 275 275 275 275 274 273 273 273 273 272 272 272 271 271 271 271 271 271 271 270 270 270 270 271 271 271 272 272 271 271 270 271 272 273 273 273 273 273 272 272 271 271 272 272 273 273 273 273 274 274 274 275 275 275 275 276 277 278 278 278 277 277 277 277 277 277 277 278 279 280 281 281 281 281 281 282 282 282 282 282 281 280
276 276 276 275 275 275 274 274 274 273 273 273 272 272 272 272 271 271 271 271 271 271 270 270 270 270 270 271 271 272 272 271 270 270 270 271 272 272 272 272 272 271 271 271 271 272 272 273 273 273 273 273 273 273 274 274 274 275 275 276 277 278 278 277 276 277 277 277 277 278 278 279 279 279 280 281 281 281 281 282 282 282 282 282 281
276 276 276 275 275 275 275 275 274 273 273 273 273 272 272 272 272 271 271 271 271 271 271 270 270 270 270 270 271 272 272 271 270 270 269 269 270 270 271 271 271 270 270 271 271 271 272 272 272 272 272 272 272 272 273 273 273 274 275 275 276 277 277 277 277 277 278 278 278 278 278 278 278 279 279 280 281 281 281 281 282 282 282 282 282
276 276 276 275 275 275 275 275 274 274 273 273 273 272 272 272 272 272 272 272 271 271 271 271 270 270 270 270 271 271 272 271 271 270 270 269 269 268 269 270 270 269 270 271 271 271 272 272 272 271 271 271 271 271 272 273 273 273 273 274 275 276 276 277 277 277 278 278 278 278 278 278 278 279 279 280 280 281 281 281 281 282 282 282 282
276 276 276 276 275 275 275 275 274 274 273 273 273 273 272 272 272 272 272 272 272 272 271 271 271 270 270 270 271 271 271 272 272 271 271 270 269 269 268 268 268 269 270 271 271 271 271 271 271 271 271 271 271 271 271 272 273 273 273 274 274 275 275 276 276 277 277 277 278 278 278 278 278 279 279 280 280 281 281 281 282 282 283 283 282
276 276 276 276 275 275 275 274 274 274 274 274 273 273 272 272 272 272 272 272 272 272 271 271 271 271 271 271 271 271 272 272 272 272 271 271 270 269 268 268 268 269 270 271 271 271 271 271 270 270 270 270 270 271 271 272 272 273 273 274 274 275 275 275 276 276 277 277 277 277 278 278 279 279 280 280 280 281 281 282 282 282 282 283 282
277 276 276 276 276 275 275 274 274 274 274 274 273 273 272 272 272 272 272 272 272 272 272 272 271 271 271 271 271 272 272 272 272 272 272 271 271 270 269 268 269 269 269 270 271 271 270 270 270 270 270 270 270 270 271 272 272 273 274 275 275 275 274 275 276 276 276 276 277 277 278 278 278 279 280 280 280 281 281 282 282 282 282 283 283
277 276 276 276 276 275 275 274 274 274 274 274 273 273 272 272 272 272 272 272 272 272 272 272 272 271 271 271 272 272 271 271 272 271 271 271 272 272 271 270 269 269 269 270 270 270 270 270 270 270 270 270 270 270 271 272 273 274 275 275 275 275 275 275 276 276 276 276 277 277 278 278 278 278 279 280 280 280 281 281 282 282 282 282 282
Wind_Speed
30 32 30 29 31 28 22 21 24 26 27 27 26 23 23 21 21 22 22 22 21 20 21 23 23 24 25 25 25 24 24 23 23 23 22 21 21 21 23 24 19 16 17 17 18 19 20 22 22 22 21 19 19 18 16 15 14 15 17 17 18 19 20 18 16 16 19 21 21 23 24 23 23 24 27 30 32 31 31 31 30 30 30 30 31
31 31 28 29 29 23 21 24 27 29 27 25 22 21 21 21 24 27 27 26 24 23 23 24 23 23 24 24 25 26 25 25 25 24 23 22 21 23 25 22 16 15 17 17 18 19 21 22 23 23 22 21 20 18 17 18 17 16 16 18 19 19 21 19 15 15 19 21 20 22 23 22 21 22 25 28 30 32 32 33 33 32 33 32 32
32 28 26 28 27 21 22 26 27 27 25 22 21 21 21 23 24 26 28 28 28 28 29 29 28 26 25 23 22 24 24 25 26 25 24 24 23 24 24 19 14 16 19 19 17 18 20 21 22 23 23 23 22 21 19 18 18 17 16 18 20 20 21 20 16 15 18 20 19 21 21 19 17 17 20 24 26 28 30 33 34 34 34 34 34
31 28 26 27 25 22 25 27 28 25 22 21 22 22 24 25 26 27 28 29 29 29 29 30 29 28 27 25 22 22 22 22 23 25 25 25 23 22 20 16 14 17 20 19 17 17 18 19 19 21 22 22 22 23 22 19 18 18 18 18 19 21 23 22 19 17 17 18 18 20 19 16 16 13 13 15 18 22 25 27 31 33 34 35 36
30 27 26 27 26 25 26 26 25 24 21 22 24 24 26 27 29 32 31 29 27 25 24 25 25 25 26 26 25 24 23 21 21 22 23 24 23 21 19 18 19 21 21 20 19 19 21 20 18 19 19 20 22 23 23 23 21 19 19 20 21 23 24 24 23 20 20 19 18 19 17 14 14 12 11 12 11 13 17 20 24 28 32 34 37
29 25 25 28 27 26 26 23 22 23 23 24 26 27 27 27 28 30 28 25 24 22 22 23 23 23 22 24 26 25 24 22 20 20 19 20 21 22 21 21 21 22 21 20 19 20 23 24 21 20 20 21 21 22 23 25 25 22 20 21 23 24 24 26 26 25 24 23 21 22 21 17 14 12 11 11 9 9 11 14 17 20 24 30 34
27 24 25 26 26 27 26 22 20 23 25 26 28 27 27 26 26 28 27 24 24 23 22 24 25 22 18 17 19 19 19 20 20 21 19 17 19 20 21 21 20 20 19 19 20 19 20 23 24 24 25 24 22 23 25 25 25 24 22 22 24 24 25 27 28 27 27 27 26 24 26 26 22 17 13 12 10 9 10 11 13 14 17 22 27
26 25 25 25 26 26 24 22 23 25 27 28 28 26 25 26 26 28 26 24 25 24 22 24 26 23 18 16 17 17 17 19 21 23 23 22 21 19 18 18 19 20 20 20 20 21 21 23 24 25 26 25 23 24 27 27 27 27 26 24 25 27 28 29 29 28 27 29 29 27 27 29 29 24 19 16 15 14 13 13 13 13 13 15 19
24 24 25 26 25 23 22 24 26 26 27 26 25 25 26 27 27 26 25 24 24 24 21 22 24 24 22 20 21 20 20 23 25 27 28 27 26 23 21 21 22 23 24 24 24 24 25 25 25 26 28 29 27 25 26 30 32 32 30 28 27 29 30 30 30 29 28 27 28 30 28 27 29 29 25 22 21 21 19 18 15 13 13 15 16
23 24 25 24 23 22 23 24 25 25 24 23 24 26 27 27 26 24 23 23 23 23 22 21 21 22 22 21 22 22 23 24 25 26 27 27 27 27 27 27 26 26 27 27 28 28 27 27 27 28 28 30 30 28 28 31 34 34 33 31 28 30 31 31 32 31 29 28 26 27 26 24 25 28 27 25 24 24 24 24 22 19 19 18 16
23 26 24 23 22 22 24 25 26 25 24 23 25 26 26 24 23 23 24 23 22 22 22 21 20 19 19 20 20 20 21 22 22 23 24 25 26 27 27 27 26 27 27 27 28 28 28 28 29 29 29 31 33 33 32 32 33 33 33 32 29 30 32 31 33 34 31 30 27 25 25 24 23 25 27 25 24 25 24 26 27 26 26 26 22
24 26 24 23 24 24 25 26 26 25 24 25 25 26 25 22 23 25 25 24 22 21 21 21 21 20 20 19 20 20 21 23 24 25 25 26 26 27 27 27 27 27 27 27 27 27 27 28 29 30 30 31 32 31 29 28 30 31 33 34 32 31 32 30 32 34 33 32 31 29 28 27 25 24 24 24 24 25 24 24 24 23 24 26 25
23 25 24 24 24 25 26 26 25 24 23 25 26 27 23 22 25 26 25 24 23 22 21 22 22 21 21 20 21 22 22 23 24 24 24 24 25 26 26 27 28 28 27 27 27 27 27 28 29 29 29 29 29 30 29 28 30 32 34 35 32 31 33 31 31 33 34 34 32 31 31 28 26 24 22 23 24 24 24 23 23 21 20 20 17
23 24 23 23 24 25 25 25 24 23 23 24 25 26 23 21 23 24 26 25 22 22 21 21 22 21 21 20 20 20 20 20 21 21 22 22 23 25 26 27 28 29 29 28 28 27 27 27 28 28 28 29 29 29 30 28 27 29 30 31 30 31 34 35 33 30 31 34 31 31 33 31 29 27 24 23 24 25 26 25 22 21 22 21 18
24 24 21 21 24 24 24 25 24 24 24 24 23 24 23 22 23 26 29 26 21 21 22 22 22 22 21 21 20 19 19 19 21 21 22 22 23 25 26 27 27 27 27 27 26 26 25 26 26 25 25 25 25 24 25 26 25 23 24 27 30 32 35 36 32 25 23 28 29 28 29 31 30 29 28 26 24 23 25 26 24 23 22 22 21
26 27 21 20 24 23 23 23 24 24 23 25 26 23 20 20 20 22 25 25 22 21 22 22 22 22 21 21 20 19 20 21 22 22 22 23 24 25 25 25 25 25 25 25 25 24 25 25 24 24 24 24 23 21 21 24 23 22 23 25 27 32 35 34 29 24 19 21 24 25 25 28 29 27 27 28 27 24 22 22 23 24 23 22 21
25 27 23 21 22 22 23 22 23 24 24 28 29 23 22 24 20 18 22 25 24 22 21 21 22 23 22 21 21 20 21 23 23 23 24 24 24 24 25 25 25 25 25 25 25 25 25 25 25 25 25 25 25 24 23 24 24 24 24 23 23 27 32 32 27 23 19 18 20 22 23 26 29 29 28 28 28 27 24 21 20 22 23 22 20
21 25 25 23 20 22 27 24 23 25 27 30 27 20 24 28 23 22 25 25 24 22 20 20 20 22 23 22 22 22 23 23 23 24 24 24 24 25 25 26 26 26 26 26 26 26 26 25 25 25 25 26 26 25 25 26 26 26 24 23 22 24 28 30 29 24 20 19 19 20 20 22 25 27 28 29 30 29 28 26 24 22 22 23 23
20 24 25 21 17 23 31 25 20 22 28 34 27 15 16 21 22 26 25 22 22 21 21 21 19 20 22 22 22 23 24 24 23 24 24 25 26 26 26 26 26 25 26 26 26 26 26 26 26 25 25 25 25 25 25 26 27 27 27 26 24 24 26 28 30 28 24 21 21 21 22 21 20 21 23 25 28 29 29 29 28 26 24 24 25
19 25 27 22 17 22 26 22 20 24 30 34 27 18 17 19 23 26 25 21 20 19 21 22 20 21 21 21 22 23 24 24 23 23 25 26 26 26 25 25 26 26 25 25 26 26 26 26 26 26 25 25 25 26 26 27 27 28 28 29 28 27 27 28 28 27 26 24 23 24 25 25 23 22 22 22 24 26 28 29 29 29 28 27 26
17 23 25 21 21 25 24 22 25 30 33 29 22 20 23 25 27 27 24 20 19 20 22 21 21 22 22 21 23 23 23 24 24 24 25 26 25 25 25 25 26 26 26 25 25 25 25 24 25 25 25 26 26 26 26 26 27 27 28 28 28 28 30 31 30 27 25 24 24 25 27 28 28 28 28 27 25 25 27 29 30 30 30 29 28
16 19 22 22 27 29 24 23 28 30 32 29 21 17 19 25 28 26 22 21 20 20 21 20 21 22 21 21 22 22 22 23 24 25 25 26 26 25 25 26 26 27 26 26 25 25 24 24 24 25 26 26 26 26 26 26 27 28 28 27 27 27 28 31 32 32 30 27 25 24 25 26 27 29 31 31 30 28 27 28 30 31 32 32 31
17 19 21 22 25 26 23 25 28 28 29 30 27 24 21 23 25 24 22 22 22 21 20 20 21 22 21 21 20 20 22 23 23 25 25 25 26 26 26 26 26 27 27 26 25 25 25 25 25 26 26 25 25 26 26 26 27 27 28 28 28 28 28 28 29 31 31 31 30 28 27 26 25 26 28 30 32 31 30 30 29 29 30 32 32
18 20 21 20 21 25 26 25 24 26 29 29 29 30 28 24 23 23 23 23 23 22 22 21 21 21 20 20 19 20 22 23 23 24 25 25 26 26 26 26 26 27 27 26 26 25 26 26 26 26 26 25 25 26 26 27 27 27 28 28 28 28 29 29 28 29 29 30 31 31 32 31 30 29 28 27 28 30 31 32 32 31 29 30 30
18 19 20 21 23 26 26 24 24 26 27 26 27 30 31 26 21 22 24 23 23 23 23 23 22 21 20 20 20 20 22 22 23 23 24 25 26 26 26 26 26 26 26 26 26 25 26 26 26 26 26 26 26 27 27 28 28 28 28 28 28 28 29 29 30 31 31 30 30 31 33 32 32 33 33 31 30 30 30 32 34 35 34 34 32
19 18 19 21 24 27 24 22 24 24 21 22 26 31 33 27 22 23 24 23 23 23 23 23 22 20 20 20 20 20 22 22 22 23 24 25 26 27 27 26 25 25 25 25 25 24 24 25 25 25 26 27 27 27 28 29 29 29 29 30 30 30 30 30 31 31 32 32 32 33 33 33 33 34 34 33 31 31 30 31 31 33 34 35 35
19 19 21 24 27 29 25 22 22 22 21 24 30 34 33 27 23 24 24 24 24 23 22 21 21 21 21 21 21 20 21 21 22 23 24 25 26 26 26 25 24 24 24 24 24 24 23 23 24 24 25 26 27 27 28 29 30 30 30 30 31 31 31 31 31 30 29 30 33 34 34 34 35 35 34 33 32 30 29 30 30 30 31 32 33
19 20 22 26 28 28 26 25 23 18 18 26 32 32 28 25 24 25 25 24 24 23 22 22 21 21 21 22 23 21 20 21 22 23 24 24 25 25 24 24 23 23 23 23 23 23 23 22 22 23 23 24 25 26 27 28 29 30 29 30 30 31 31 31 31 30 28 28 31 33 35 36 36 36 37 37 37 33 31 33 34 33 33 32 31
20 20 22 25 28 27 25 27 26 21 20 26 29 26 24 24 25 25 24 24 23 24 24 23 21 20 20 21 23 23 21 21 22 23 24 24 23 23 23 22 21 22 22 21 22 22 22 22 22 23 23 24 24 25 25 25 27 28 28 28 28 29 30 30 30 30 30 30 31 32 34 37 38 38 37 38 38 34 29 31 35 35 34 31 28
20 21 23 25 28 27 24 24 26 25 23 25 25 23 22 24 25 25 25 23 22 24 25 23 22 22 21 21 22 23 22 21 21 23 23 23 22 22 22 21 20 21 20 21 21 21 21 22 23 23 24 24 25 25 23 22 23 26 27 26 26 25 25 27 28 29 31 31 31 31 31 33 36 39 39 37 38 36 28 24 28 33 34 32 26
21 22 23 25 28 28 25 23 23 25 24 23 23 22 22 23 24 24 24 23 23 24 24 23 22 22 22 21 21 22 22 21 21 22 23 22 21 20 21 20 20 19 19 20 21 21 22 23 24 23 23 24 25 24 22 21 20 22 27 28 29 27 25 25 25 26 27 28 28 28 28 28 31 36 40 40 41 41 36 28 26 29 35 36 31
22 24 24 25 27 28 27 23 23 25 23 22 22 22 22 23 23 23 23 24 25 24 24 23 22 22 22 22 22 22 21 20 19 20 22 21 20 19 19 19 19 18 18 19 20 20 21 22 22 23 23 23 23 21 20 19 18 18 23 28 30 30 30 29 27 26 26 25 24 24 24 24 25 28 35 41 44 46 43 38 33 32 37 41 38
23 24 25 26 27 27 26 23 23 24 22 21 22 23 22 22 22 22 23 24 24 24 23 23 22 22 23 23 24 23 22 20 18 18 20 20 19 18 18 18 18 18 18 19 19 20 20 20 21 22 22 22 20 18 17 16 15 15 19 25 28 30 31 31 30 29 29 28 27 27 26 25 23 21 25 33 42 48 49 46 42 39 41 45 44
24 25 25 26 26 27 26 23 23 24 21 21 22 22 21 21 21 22 23 23 23 23 23 23 22 22 23 24 24 24 23 21 18 17 18 18 18 18 18 18 18 17 18 18 18 18 18 19 21 23 22 21 19 16 15 15 13 12 13 19 24 27 30 31 30 29 29 28 28 29 28 27 26 24 22 23 30 39 48 51 50 48 46 46 47
24 25 25 25 25 26 26 24 23 23 21 21 22 21 21 21 21 23 23 23 23 23 22 22 22 22 23 24 24 24 23 22 20 18 18 17 16 17 17 18 18 17 18 18 16 17 17 17 20 22 22 22 19 16 14 14 13 11 12 15 19 21 24 26 27 26 25 24 25 27 29 28 27 27 24 22 22 25 34 45 51 53 53 52 51
24 25 24 24 25 25 24 22 22 22 21 21 21 20 21 22 23 23 23 23 24 23 23 22 22 23 23 24 24 23 23 22 20 19 19 18 17 16 16 17 18 17 18 17 16 16 16 16 17 20 23 23 19 14 13 13 12 11 12 14 18 20 21 22 23 23 23 22 22 23 24 25 25 25 24 23 22 20 21 28 37 44 49 51 53
24 24 23 24 25 24 22 21 20 21 21 21 21 21 22 23 23 23 23 24 24 24 24 23 23 23 24 23 23 23 23 22 21 20 20 21 19 17 16 16 17 17 17 17 15 14 14 15 15 18 21 24 21 14 11 10 11 11 12 13 16 19 20 21 22 22 22 22 21 21 21 22 24 24 22 21 22 22 21 21 24 28 34 39 42
23 22 22 23 24 24 22 19 18 20 22 22 22 22 23 23 23 23 24 24 25 25 24 24 23 22 23 23 22 22 22 22 21 21 21 22 21 19 17 15 16 16 16 17 16 14 13 13 15 16 19 23 25 19 12 10 12 13 13 13 15 16 18 19 20 20 20 20 21 20 20 20 22 21 19 19 20 22 25 24 23 23 26 30 34
23 22 22 22 23 23 21 19 19 20 21 21 21 22 22 22 23 23 24 24 24 25 24 24 24 22 21 22 22 21 20 20 20 20 20 21 21 20 18 16 15 16 16 17 16 14 12 11 13 15 16 21 25 22 15 12 12 13 14 14 14 14 15 17 18 19 20 20 20 19 18 18 19 18 17 16 18 21 25 26 25 26 28 29 30
23 22 21 21 22 23 21 20 20 22 21 21 21 22 22 22 23 24 24 24 24 25 25 25 24 21 20 21 21 21 19 17 18 18 19 19 20 20 18 16 16 15 16 17 16 16 15 14 14 15 15 17 21 21 16 14 13 13 13 14 14 15 16 17 17 18 19 20 20 21 21 18 16 16 16 15 15 18 22 24 24 27 29 28 26
22 22 21 20 21 21 21 20 19 20 21 20 20 21 21 22 23 23 24 24 24 25 24 24 23 22 20 19 19 19 18 16 15 16 17 17 17 18 17 16 16 16 15 16 16 17 18 17 16 17 17 16 17 19 18 17 16 15 14 14 14 14 16 18 19 19 20 20 19 20 21 21 18 15 14 15 15 16 19 22 23 23 22 21 21
22 22 21 21 20 20 20 19 18 19 20 20 20 20 21 21 22 23 23 24 25 24 23 23 22 21 20 18 17 17 16 14 13 14 15 15 14 14 15 15 16 15 14 14 15 17 18 19 18 18 18 17 17 18 19 19 19 18 17 17 17 16 16 18 21 21 21 21 20 18 18 20 20 18 16 15 15 14 16 21 23 22 19 18 20
23 22 22 21 21 20 20 18 17 19 20 20 20 21 20 20 21 22 23 24 25 24 23 22 21 20 19 18 16 16 15 13 12 12 13 13 13 13 13 14 14 13 13 13 14 16 18 19 20 19 19 18 18 18 18 19 20 20 20 20 19 17 17 19 22 23 22 21 21 19 17 17 18 19 18 17 16 16 17 19 22 23 22 21 21
23 22 22 21 21 21 20 18 17 19 19 19 20 21 20 20 20 22 23 24 24 24 24 22 20 19 18 17 16 14 13 12 12 12 12 11 11 11 12 12 11 11 11 12 13 16 18 20 20 20 20 21 19 18 19 20 21 22 22 21 20 18 17 18 21 22 20 18 18 19 18 17 18 19 20 19 18 18 19 19 19 22 24 24 24
22 22 22 21 21 21 20 19 17 18 19 19 19 20 20 20 20 21 22 23 24 24 23 21 20 19 17 16 15 13 12 12 12 12 12 11 10 10 10 9 9 9 10 12 14 16 18 20 20 20 20 22 21 19 19 20 23 25 23 21 20 19 17 18 19 19 17 16 17 19 19 19 19 20 21 22 21 20 21 21 19 19 21 24 26
22 22 21 21 22 21 21 20 18 18 19 18 18 19 20 19 20 20 21 22 23 23 22 21 19 18 17 16 14 12 11 12 12 12 12 12 11 11 9 8 8 8 10 14 17 19 19 19 20 20 21 22 22 22 20 21 25 27 25 24 24 22 19 19 19 18 16 15 15 16 17 17 17 17 19 21 22 22 22 22 21 19 19 22 25
22 21 22 22 22 22 22 21 19 18 19 19 18 19 20 19 20 20 20 21 22 22 21 20 19 17 16 15 14 13 12 12 11 12 12 12 12 11 9 8 9 10 13 17 19 19 19 19 20 20 21 22 23 23 23 23 25 27 27 28 28 25 22 21 20 18 17 17 16 14 12 12 13 14 14 15 17 19 19 19 18 18 18 20 24
22 21 22 22 22 22 22 21 20 19 19 19 18 19 20 20 20 20 20 20 20 20 20 19 18 17 16 15 15 14 13 12 12 13 14 14 13 12 11 10 10 11 14 19 20 19 18 18 20 21 20 21 23 24 24 24 25 25 27 28 27 24 23 23 22 20 19 19 17 14 10 10 11 12 11 11 13 14 15 15 16 16 17 19 22
22 21 22 22 22 22 22 21 21 20 20 19 18 18 19 19 20 20 20 20 20 19 18 17 17 16 16 15 14 14 14 14 13 14 14 14 13 13 12 11 10 10 13 17 17 16 16 17 19 19 19 19 21 23 23 23 23 24 24 25 23 21 20 22 22 21 20 18 17 15 13 12 12 12 11 10 11 11 11 13 15 16 16 17 19
22 22 22 23 22 22 22 21 21 20 20 20 18 18 19 18 19 20 20 20 20 19 17 15 15 15 15 14 14 15 16 16 16 16 16 15 13 11 10 9 9 10 13 15 14 13 13 15 16 17 17 16 17 20 22 22 22 23 23 20 18 17 18 20 21 19 18 16 15 15 14 12 11 10 9 9 10 10 10 11 13 14 16 17 18
23 23 23 23 22 22 22 21 21 20 20 20 19 18 18 18 18 19 19 19 19 18 16 14 14 14 14 14 15 16 18 17 17 17 18 17 16 13 9 7 7 8 10 11 10 10 11 12 14 15 16 16 17 19 20 21 21 22 20 17 15 15 16 19 19 17 14 13 12 11 10 9 8 7 6 7 7 7 7 8 8 9 12 15 18
Wind_Direction
324 325 325 327 328 328 329 334 338 337 332 330 331 331 331 333 332 331 330 325 324 331 332 327 324 321 315 308 302 296 291 292 294 296 301 308 307 296 293 301 303 298 302 309 313 316 318 320 320 320 319 311 301 288 277 276 277 280 279 275 273 273 270 265 267 276 278 278 281 281 278 273 264 255 249 245 242 240 239 237 232 229 228 226 226
326 327 328 330 329 329 331 335 337 336 333 332 332 330 332 333 332 330 327 323 320 321 322 321 318 318 318 314 309 301 290 286 288 286 286 290 294 290 291 298 302 303 304 305 311 315 316 318 320 321 323 321 315 302 284 275 272 276 282 281 279 278 277 274 271 274 274 274 280 286 284 279 271 261 253 249 245 242 240 239 238 234 233 230 227
331 331 331 333 331 328 333 339 339 334 332 333 331 331 333 330 328 328 325 321 316 312 313 312 309 308 309 309 310 309 301 290 285 284 283 281 280 281 286 294 302 306 305 304 308 314 317 318 318 318 319 321 320 314 301 284 275 275 278 281 283 282 278 274 267 262 269 274 276 278 281 283 281 270 259 253 249 247 244 241 240 238 236 235 232
332 331 333 334 332 328 332 337 337 336 336 334 332 332 330 324 321 320 320 319 315 312 315 314 311 309 306 302 301 304 305 300 292 286 282 281 281 282 288 291 290 291 292 296 300 305 312 314 313 314 315 316 317 316 313 300 282 274 273 273 276 279 278 273 263 249 250 263 271 270 271 276 277 275 267 254 245 245 244 242 242 240 237 236 235
330 330 333 334 331 327 330 333 333 336 336 332 331 329 324 322 322 319 319 324 325 322 320 317 315 314 312 309 305 303 305 306 307 300 287 281 281 281 284 285 285 285 281 284 294 302 306 306 305 309 310 311 312 311 312 309 296 278 270 270 272 275 276 274 268 251 239 242 254 262 263 264 261 262 268 254 232 234 238 236 238 240 239 237 236
331 329 331 333 332 331 334 336 334 333 331 327 326 324 319 318 321 321 324 331 328 322 320 319 318 317 318 317 312 308 309 306 305 309 303 289 281 276 274 275 281 283 279 279 288 296 304 304 300 300 301 304 307 306 307 309 306 291 273 266 268 270 273 274 269 257 246 238 238 246 248 249 254 263 274 263 233 218 227 232 233 235 238 238 237
331 330 333 334 334 336 338 340 338 333 328 325 325 323 319 318 319 321 324 328 321 316 320 320 316 314 318 324 318 312 316 312 296 295 301 296 287 278 270 269 273 275 273 274 275 278 289 296 297 296 296 298 301 301 302 303 303 298 283 267 261 265 270 272 269 262 254 244 237 239 240 239 245 259 269 270 257 227 216 227 234 233 236 239 240
331 331 335 334 334 335 337 338 336 331 325 322 323 322 319 320 321 321 323 324 320 318 322 320 313 310 315 327 328 321 322 318 300 292 296 296 289 279 267 264 265 265 266 270 273 275 279 284 288 289 287 289 293 296 297 296 296 294 288 274 260 258 265 269 269 264 257 250 242 241 242 236 236 245 251 256 265 255 227 215 219 223 229 237 241
331 333 333 333 334 333 334 335 332 330 326 322 321 320 319 319 320 322 324 324 322 323 323 319 316 314 316 322 322 317 313 308 299 295 297 296 291 283 275 271 269 268 270 275 279 281 279 276 274 278 282 284 286 289 292 293 293 291 288 282 266 256 259 265 268 263 255 252 247 242 244 241 236 240 246 247 253 256 245 229 220 218 227 237 243
333 333 331 331 333 330 331 333 329 327 324 322 322 321 321 320 320 323 325 325 325 326 324 322 325 324 321 321 319 315 313 309 304 301 301 300 297 293 289 287 284 281 280 281 281 279 276 274 271 272 279 283 282 281 286 289 289 289 286 283 272 259 258 262 265 263 254 250 248 240 237 241 239 237 241 245 246 249 251 247 240 236 239 239 242
332 333 331 330 331 329 329 329 327 324 322 324 328 326 323 322 323 325 326 326 325 324 324 325 326 323 318 316 314 313 312 310 308 306 305 304 302 300 297 295 292 288 286 282 280 278 275 275 274 273 273 278 280 281 286 286 282 282 282 280 272 261 259 262 262 261 253 245 244 237 231 236 239 235 234 236 239 243 247 251 250 248 250 248 245
332 332 331 331 330 329 329 328 325 322 326 331 330 325 324 325 325 325 326 327 325 322 322 323 321 318 315 311 307 305 303 302 302 303 304 303 301 299 297 295 293 290 289 286 283 282 279 277 277 278 279 280 282 282 283 281 277 276 276 277 273 260 256 261 261 259 252 241 237 233 232 235 236 234 234 233 234 238 241 248 251 251 256 256 253
333 331 329 330 330 329 329 328 325 323 329 334 328 323 327 331 329 326 325 324 323 323 323 321 320 318 315 311 306 304 304 304 305 303 301 299 298 297 295 293 292 290 289 288 286 284 282 280 278 278 279 278 278 277 275 275 275 273 270 271 270 257 251 255 257 256 250 241 236 231 228 231 231 228 229 231 231 232 234 239 241 238 244 250 247
330 328 327 328 329 329 328 325 323 324 327 329 326 325 328 332 329 323 321 322 324 325 324 321 319 317 315 313 311 310 310 308 304 300 297 296 295 293 291 290 289 289 289 288 287 285 283 282 280 278 278 277 277 277 274 273 271 266 263 265 265 254 248 251 252 253 249 240 237 235 230 231 235 232 228 229 230 230 231 235 238 236 239 241 235
326 324 326 329 327 326 326 325 323 325 325 322 320 326 330 329 328 325 321 321 326 324 322 320 318 317 316 316 316 313 310 305 301 301 301 299 298 295 293 293 292 292 292 290 289 288 286 285 284 284 282 280 279 276 271 271 270 267 265 268 266 257 251 250 247 246 248 241 235 233 230 231 236 237 233 230 231 233 234 236 240 245 246 246 243
327 325 324 327 327 319 317 320 322 324 321 316 316 320 325 321 322 328 322 317 323 321 317 320 319 318 319 318 317 312 309 308 307 307 304 301 301 299 298 298 297 296 294 292 290 288 287 286 285 283 280 277 275 272 269 270 271 271 269 269 266 259 254 248 239 234 238 241 237 231 228 227 229 231 231 228 227 227 231 234 237 243 246 247 249
329 331 325 325 328 320 316 320 320 316 309 311 321 326 328 324 314 308 302 306 319 321 318 324 321 319 321 318 315 313 312 312 309 307 305 304 303 302 300 298 297 296 294 293 291 288 287 286 284 282 279 276 274 272 270 270 269 266 264 265 266 264 257 246 237 233 229 229 238 240 238 235 232 232 232 230 227 224 224 226 229 234 239 241 243
323 328 326 326 326 318 319 321 314 310 304 309 325 331 328 329 321 306 299 304 319 321 321 324 317 316 319 317 316 315 313 311 309 309 308 307 306 302 300 298 296 295 294 292 291 289 288 287 286 284 280 278 276 274 271 270 270 269 267 267 268 270 267 252 240 239 231 221 229 237 238 240 241 243 242 239 237 234 231 228 227 229 234 239 240
315 320 320 320 324 322 325 325 311 305 305 309 320 323 311 315 317 313 310 312 318 319 321 320 315 315 314 311 313 311 310 311 311 311 309 307 305 303 301 300 298 297 294 293 291 289 288 287 285 284 281 278 276 273 270 268 268 269 269 269 265 267 273 265 252 248 244 232 229 233 234 235 240 247 251 249 246 244 241 237 233 231 231 237 239
311 319 320 317 323 323 323 324 314 307 307 312 325 335 321 308 304 308 313 317 319 319 319 317 317 316 312 311 313 311 313 315 313 310 307 305 304 304 303 301 299 297 295 293 290 288 288 286 284 283 280 278 275 273 271 268 267 267 266 266 263 260 264 267 262 256 252 246 243 242 239 237 238 242 246 248 247 245 243 240 238 235 232 235 239
306 321 327 322 322 322 319 314 309 307 309 316 332 340 327 311 306 310 317 323 323 320 317 316 317 316 314 315 313 312 315 315 312 309 307 307 306 304 303 301 299 298 297 295 292 289 288 285 284 282 280 278 276 273 271 269 267 265 265 265 264 260 258 259 260 256 252 250 250 250 249 246 245 246 246 244 242 242 243 241 239 237 233 232 234
303 315 321 316 317 321 319 309 306 308 312 320 330 327 307 301 308 315 320 323 321 316 315 316 316 314 312 312 310 312 316 313 311 311 309 308 307 305 305 303 301 301 300 297 294 291 289 286 284 282 280 278 276 274 272 268 265 263 261 261 260 259 257 257 257 256 253 249 247 246 248 249 249 249 249 245 242 240 243 245 244 243 240 235 232
301 309 314 315 318 320 316 311 311 313 317 323 329 324 308 304 314 320 321 321 320 317 317 316 313 311 311 311 312 316 317 314 313 311 310 310 309 309 309 306 305 306 304 301 297 294 290 286 283 281 279 277 275 273 270 268 266 264 261 259 257 255 255 254 254 253 254 253 250 245 242 241 244 248 248 246 244 241 240 242 243 243 243 241 236
301 310 313 313 315 315 315 316 313 312 318 322 322 323 321 317 317 318 319 319 319 320 319 315 312 312 313 315 318 319 317 316 313 311 312 315 316 316 314 312 312 311 309 306 302 298 294 289 284 281 278 276 273 272 270 267 266 263 262 260 258 255 254 253 252 250 249 249 248 247 244 241 241 245 247 247 247 247 243 241 240 238 238 239 239
301 311 315 312 314 317 319 319 311 311 320 320 314 316 319 320 318 315 314 315 317 321 320 316 314 315 318 321 322 321 317 315 313 314 318 321 322 322 320 319 317 314 312 310 306 303 299 294 289 283 278 275 272 270 269 267 264 262 260 259 257 255 252 251 250 248 245 243 242 241 242 241 241 243 246 247 248 250 248 244 242 241 238 238 239
301 307 311 311 315 320 321 317 313 319 327 320 310 307 310 316 319 312 309 311 314 319 319 317 316 317 320 323 322 319 315 314 316 319 323 325 325 325 324 322 321 319 316 313 310 308 304 299 295 289 283 277 272 269 267 266 263 261 259 256 255 254 253 252 252 250 247 243 240 239 238 237 237 239 242 244 244 245 246 245 245 245 243 242 243
301 302 304 305 311 319 319 308 307 321 325 311 301 298 301 311 317 312 310 311 311 315 318 318 319 320 322 323 321 318 316 317 320 322 325 326 326 326 325 324 324 323 320 318 316 313 309 305 300 295 289 284 277 272 268 266 264 261 259 256 254 253 253 253 254 254 254 249 244 241 239 235 235 237 239 240 238 238 240 243 244 246 248 249 248
300 301 303 303 312 323 321 311 308 311 306 299 296 296 301 310 313 311 311 310 310 315 319 319 319 321 324 323 321 320 320 320 322 324 325 325 325 324 324 325 326 325 324 322 320 317 314 311 308 303 298 292 285 277 271 267 265 263 260 258 256 255 255 255 254 251 251 252 248 244 241 238 235 235 237 237 236 236 241 245 246 248 249 246 244
298 301 303 303 313 324 321 314 313 306 293 293 298 303 310 313 313 312 311 311 312 315 317 319 319 321 324 323 320 321 323 323 322 323 323 323 324 324 324 325 328 327 325 324 322 320 320 319 317 313 308 301 294 287 281 275 269 266 265 261 258 256 255 256 255 251 247 247 247 245 244 241 238 235 235 236 234 233 239 243 241 239 236 232 231
294 300 302 302 312 322 319 312 313 310 302 299 303 311 314 311 310 311 312 313 314 313 315 318 319 318 319 319 320 321 324 325 323 320 320 322 324 324 324 327 328 326 326 325 324 324 326 327 326 322 317 310 304 299 295 289 278 269 267 268 266 262 258 255 255 253 252 251 252 252 250 246 242 238 235 233 230 229 231 233 234 232 227 225 227
293 299 303 304 309 317 316 309 305 305 303 302 306 310 308 305 306 309 313 315 314 312 314 316 315 314 316 319 321 321 323 326 323 318 319 322 325 326 326 327 327 326 325 325 327 330 332 333 331 328 323 317 313 311 307 302 290 269 261 264 269 270 269 266 262 260 258 258 259 259 258 255 249 242 237 232 229 231 232 230 232 233 227 227 232
294 300 304 307 308 313 317 313 303 300 301 304 308 308 306 306 308 311 316 318 315 314 315 315 316 317 319 322 322 320 321 325 324 320 319 323 327 327 327 327 327 325 323 325 329 331 333 336 335 331 327 321 320 322 317 310 301 278 259 257 263 268 270 271 270 269 269 268 266 266 264 263 260 251 242 236 230 232 235 234 234 233 225 225 232
295 301 305 307 307 312 316 313 305 304 305 306 306 305 304 306 310 314 317 318 317 318 317 316 318 319 321 323 322 320 321 323 324 321 320 325 329 329 329 329 327 325 324 326 329 330 334 340 339 336 331 327 327 331 327 317 308 289 264 255 257 263 268 272 273 274 275 275 273 272 271 270 270 264 253 243 235 232 234 236 237 236 229 225 229
294 299 303 304 307 312 314 310 306 307 308 306 304 302 303 307 312 314 317 319 320 320 320 319 320 321 322 323 323 323 322 323 324 321 322 328 331 331 332 329 327 327 325 324 325 327 334 341 344 342 336 332 335 339 332 322 314 303 277 259 255 258 263 268 273 275 276 278 277 276 275 276 277 274 266 256 245 236 234 235 237 238 236 231 230
292 295 298 301 307 314 316 313 310 310 310 306 304 304 306 311 315 316 319 322 322 322 322 322 322 323 324 324 324 324 323 324 325 322 323 330 333 334 334 330 327 328 326 325 325 327 336 343 348 348 343 341 347 348 338 329 318 306 289 271 262 261 263 266 270 274 278 281 283 281 281 282 281 279 275 269 260 247 237 235 236 237 238 238 237
288 291 295 302 308 313 315 315 314 315 313 309 310 312 313 316 319 320 322 325 325 325 325 324 324 326 326 325 324 324 324 325 327 325 324 328 332 334 333 328 326 326 327 329 326 328 339 347 350 351 349 348 352 352 344 339 327 309 295 280 273 272 273 275 278 282 285 287 288 286 284 285 284 282 282 275 268 261 248 238 236 236 237 239 240
287 292 296 304 310 314 317 318 317 318 318 317 318 318 316 318 323 325 327 328 328 328 327 325 326 327 326 325 325 325 325 326 327 327 325 325 327 330 331 327 323 322 326 329 325 326 339 347 349 352 352 350 351 352 351 349 342 324 302 283 278 279 280 282 285 288 289 289 289 287 286 286 285 285 286 281 270 260 254 249 243 238 237 237 237
287 294 300 306 311 314 318 319 316 316 319 320 321 319 317 322 328 330 331 331 329 328 328 327 327 327 326 326 326 326 325 324 326 327 325 324 324 325 325 323 321 320 323 326 324 324 332 341 344 348 353 352 349 348 350 354 350 339 324 306 293 285 282 287 292 292 291 290 291 291 289 287 286 285 286 285 275 256 247 250 252 247 243 240 237
288 295 301 305 308 312 317 320 320 320 322 323 322 321 322 327 331 332 332 331 330 330 330 328 328 327 326 326 326 325 323 321 323 325 324 324 324 323 321 321 322 321 321 324 327 326 326 331 338 342 351 354 349 345 351 357 346 341 345 345 333 314 303 302 301 297 293 292 291 292 291 286 284 281 277 278 277 261 247 248 251 249 247 246 241
289 295 300 303 307 311 316 320 320 319 322 325 325 325 329 333 334 333 332 332 332 332 331 329 328 327 327 327 325 322 319 320 322 323 324 326 325 322 321 320 320 320 322 326 332 337 333 330 334 337 341 349 346 342 346 349 336 329 342 352 348 338 329 322 313 305 298 293 289 288 290 291 291 284 273 268 271 265 254 251 249 246 249 254 250
290 293 297 299 303 307 312 316 315 314 319 325 326 328 332 335 335 334 333 334 334 333 332 331 329 329 329 327 323 320 318 319 321 322 325 328 327 325 323 322 319 319 324 330 338 344 340 335 337 338 335 338 341 338 339 340 332 325 331 338 339 337 332 324 315 306 299 293 287 282 283 288 291 289 278 268 264 261 253 249 249 251 257 266 259
290 293 295 297 300 304 306 310 313 315 319 324 327 330 335 335 335 336 336 336 335 335 334 334 332 330 328 325 323 320 317 318 322 325 326 329 331 328 325 324 321 320 325 333 339 343 342 340 341 339 334 333 335 337 339 340 332 323 323 330 333 332 328 323 316 308 302 298 292 282 275 277 280 283 283 276 266 257 248 245 248 254 263 267 259
289 290 292 295 298 301 304 309 315 316 317 322 326 330 333 335 336 337 337 336 336 336 337 338 335 331 328 326 324 321 317 319 326 329 328 330 332 330 327 325 323 322 326 335 342 346 346 343 339 336 333 334 335 336 337 335 328 321 320 324 325 324 325 324 317 310 305 301 296 290 277 267 266 269 276 277 269 258 251 249 248 249 254 257 254
289 289 290 292 295 298 303 309 312 312 314 320 325 327 331 335 336 336 336 337 338 338 340 341 337 332 331 330 327 322 320 326 333 333 331 332 332 330 330 329 327 329 335 341 350 353 348 340 334 331 332 333 333 334 335 333 327 322 322 324 322 318 322 324 316 310 309 305 302 299 292 280 273 268 265 265 264 257 251 249 247 244 245 246 244
287 286 288 289 291 295 300 303 306 308 312 318 321 323 328 333 334 334 336 337 338 340 341 341 340 338 336 333 329 327 329 335 339 336 335 339 341 338 338 337 337 343 351 354 355 353 345 336 330 329 330 329 327 328 330 327 324 324 328 330 326 321 322 323 317 316 318 314 304 299 293 287 283 275 263 255 254 255 249 243 242 243 244 242 239
286 285 287 288 289 292 294 299 304 306 309 315 319 321 325 329 330 332 335 337 339 341 343 343 343 342 341 336 333 337 342 344 343 341 341 348 352 348 345 347 350 354 359 358 353 347 341 333 326 325 326 324 323 326 326 321 322 327 332 333 329 325 325 324 321 319 321 317 308 300 294 290 286 281 272 261 255 256 253 244 239 242 246 245 241
286 284 284 284 286 289 292 296 301 303 307 313 317 320 322 325 328 331 334 337 340 342 344 346 347 347 346 344 344 348 352 350 348 349 351 354 354 349 347 353 357 355 355 353 346 339 335 330 323 322 323 321 321 325 325 324 328 331 331 328 326 325 326 326 325 323 323 323 322 318 311 302 294 290 286 273 260 258 257 247 238 239 244 245 243
286 283 281 281 284 287 289 293 297 300 304 309 314 318 319 322 326 330 332 336 341 344 346 348 351 352 353 353 354 356 359 357 356 356 356 355 353 351 348 349 352 349 345 343 337 331 329 325 320 319 318 317 319 322 324 329 332 330 326 323 322 324 327 327 326 325 324 323 326 326 315 299 291 287 284 277 265 260 257 248 241 243 247 246 244
285 283 280 280 281 283 285 288 292 295 298 303 309 313 315 319 324 326 329 335 340 345 350 351 354 358 359 359 1 2 2 1 0 360 358 355 355 354 346 339 340 341 335 331 328 326 325 321 317 316 316 317 320 320 322 326 326 321 320 321 320 324 328 325 322 323 321 320 323 322 312 298 291 285 278 272 268 262 256 250 246 250 254 253 249
285 283 280 279 279 280 282 284 287 290 293 298 304 307 310 315 319 322 326 332 337 343 350 355 359 3 3 2 5 4 1 360 359 359 357 355 358 1 352 336 333 335 331 328 328 328 324 320 318 315 313 317 320 317 316 318 316 315 318 320 323 329 328 321 320 324 324 320 318 314 307 301 295 287 278 270 264 259 254 249 247 250 253 253 250
283 282 281 280 279 278 279 281 283 286 289 293 298 302 305 310 314 318 323 328 332 337 345 354 2 5 2 1 3 2 358 356 357 358 356 353 354 1 7 0 348 340 333 331 329 321 313 313 317 314 310 311 312 312 313 313 312 314 319 325 330 331 324 321 327 332 329 323 318 313 308 304 295 287 281 274 270 265 251 234 226 227 233 235 235